Location: Phoenix
(33.4480°N, 112.0730°W)
Time: 07:08:12
(UTC-07:00)

ISS - All Passes

Search period start: 21 October 2017 00:00
Search period end: 31 October 2017 00:00
Orbit: 401 x 408 km, 51.6° (Epoch: 22 October)

Date Brightness Start Highest point End Pass type
(mag) Time Alt. Az. Time Alt. Az. Time Alt. Az.
21 Oct - 08:36:10 10° SSW 08:39:15 43° SE 08:42:21 10° ENE daylight
21 Oct - 10:13:42 10° WNW 10:15:52 16° NNW 10:18:02 10° N daylight
21 Oct - 15:08:36 10° N 15:09:41 11° NNE 15:10:46 10° NE daylight
21 Oct - 16:43:16 10° NW 16:46:32 87° SW 16:49:49 10° SE daylight
22 Oct - 07:44:38 10° S 07:47:03 19° SE 07:49:28 10° E daylight
22 Oct - 09:20:29 10° W 09:23:22 28° NW 09:26:15 10° NNE daylight
22 Oct - 15:51:03 10° NNW 15:54:12 41° NE 15:57:18 10° ESE daylight
22 Oct - 17:28:43 10° W 17:30:21 13° SW 17:31:59 10° SSW daylight
23 Oct - 08:27:44 10° WSW 08:30:56 59° NW 08:34:09 10° NE daylight
23 Oct - 14:59:05 10° NNW 15:01:43 22° NE 15:04:20 10° E daylight
23 Oct - 16:35:19 10° WNW 16:38:10 28° SW 16:41:00 10° S daylight
24 Oct - 07:35:25 10° SSW 07:38:35 58° SE 07:41:47 10° NE daylight
24 Oct - 09:13:31 10° WNW 09:15:18 14° NNW 09:17:07 10° N daylight
24 Oct - 14:07:28 10° N 14:09:08 13° NNE 14:10:47 10° ENE daylight
24 Oct - 15:42:39 10° NW 15:45:53 65° SW 15:49:07 10° SE daylight
25 Oct - 06:43:36 10° S 06:46:19 25° SE 06:49:03 10° ENE daylight
25 Oct - 08:20:03 10° W 08:22:43 23° NW 08:25:25 10° NNE daylight
25 Oct - 14:50:19 10° NW 14:53:31 54° NE 14:56:43 10° ESE daylight
25 Oct - 16:29:31 10° SW 16:29:35 10° SW 16:29:39 10° SW daylight
26 Oct - 05:52:50 10° SSE 05:54:07 12° SE 05:55:23 10° ESE visible
26 Oct - 07:27:07 10° WSW 07:30:14 45° NW 07:33:23 10° NE daylight
26 Oct - 13:58:12 10° NNW 14:01:02 27° NE 14:03:52 10° E daylight
26 Oct - 15:34:49 10° WNW 15:37:23 21° SW 15:39:57 10° S daylight
27 Oct - 06:34:36 10° SW 06:37:49 79° SE 06:41:04 10° NE daylight
27 Oct - 08:13:21 10° NW 08:14:39 12° NNW 08:15:57 10° N daylight
27 Oct - 13:06:24 10° N 13:08:27 16° NNE 13:10:31 10° ENE daylight
27 Oct - 14:41:57 10° WNW 14:45:06 48° SW 14:48:15 10° SSE daylight
28 Oct - 05:42:32 10° SSW 05:45:29 33° SE 05:48:27 10° ENE visible
28 Oct - 07:19:33 10° W 07:22:00 19° NW 07:24:27 10° NNE daylight
28 Oct - 13:49:28 10° NW 13:52:43 72° NE 13:55:57 10° SE daylight
29 Oct - 04:51:14 10° SSE 04:53:13 15° SE 04:55:13 10° E visible
29 Oct - 06:26:26 10° WSW 06:29:26 35° NW 06:32:28 10° NNE daylight
29 Oct - 12:57:15 10° NNW 13:00:14 33° NE 13:03:13 10° ESE daylight
29 Oct - 14:34:19 10° W 14:36:29 17° SW 14:38:40 10° S daylight
30 Oct - 05:33:43 10° SW 05:36:57 79° NW 05:40:12 10° NE visible
30 Oct - 07:13:35 10° NNW 07:13:53 10° NNW 07:14:11 10° NNW daylight
30 Oct - 12:05:16 10° NNW 12:07:38 18° NNE 12:10:01 10° E daylight
30 Oct - 13:41:10 10° WNW 13:44:12 36° SW 13:47:12 10° SSE daylight
